RCH117 KLSV-KNZY

Flight info

Callsign RCH117
Flight time N/A
Altitude 24000
Route LAS V538 GFS/N0321F160 V514 TNP/N0425F380 MOMAR CHASR2
Aircraft C17/H-SDE1E2FGHIJ5RTUWXY/LB1D1

Departure

Time 2026-04-29 01:19
Airport Nellis Air Force Base (KLSV)

Arrival

Time N/A
Airport North Island Naval Air Station-Halsey Field (KNZY)
Time Latitude Longitude Altitude Speed Heading
2026-04-29 01:02 36.23660 -115.04003 1846 ft 0 kts 39°
2026-04-29 01:12 36.23663 -115.03991 1846 ft 7 kts 75°
2026-04-29 01:13 36.23694 -115.03850 1847 ft 26 kts 69°
2026-04-29 01:13 36.23827 -115.03667 1846 ft 30 kts 41°
2026-04-29 01:13 36.23988 -115.03492 1848 ft 32 kts 41°
2026-04-29 01:13 36.24156 -115.03308 1853 ft 32 kts 41°
2026-04-29 01:14 36.24321 -115.03154 1859 ft 25 kts 14°
2026-04-29 01:14 36.24471 -115.03140 1860 ft 19 kts
2026-04-29 01:14 36.24584 -115.03138 1865 ft 14 kts
2026-04-29 01:14 36.24658 -115.03134 1864 ft 8 kts
2026-04-29 01:15 36.24694 -115.03132 1870 ft 2 kts
2026-04-29 01:15 36.24697 -115.03132 1870 ft 0 kts
2026-04-29 01:15 36.24698 -115.03132 1870 ft 1 kts
2026-04-29 01:16 36.24726 -115.03108 1871 ft 6 kts 71°
2026-04-29 01:16 36.24728 -115.03020 1865 ft 14 kts 91°
2026-04-29 01:16 36.24725 -115.02892 1865 ft 14 kts 91°
2026-04-29 01:16 36.24722 -115.02774 1863 ft 13 kts 92°
2026-04-29 01:17 36.24714 -115.02670 1862 ft 17 kts 101°
2026-04-29 01:17 36.24645 -115.02562 1864 ft 15 kts 191°
2026-04-29 01:17 36.24592 -115.02602 1863 ft 0 kts 221°
2026-04-29 01:17 36.24523 -115.02677 1862 ft 39 kts 221°
2026-04-29 01:18 36.24184 -115.03042 1861 ft 88 kts 221°
2026-04-29 01:18 36.22899 -115.04425 1920 ft 142 kts 221°
2026-04-29 01:18 36.22164 -115.05215 2351 ft 134 kts 220°
2026-04-29 01:19 36.21445 -115.06010 2596 ft 139 kts 229°
2026-04-29 01:19 36.21036 -115.06999 3015 ft 128 kts 252°
2026-04-29 01:19 36.20777 -115.08089 2768 ft 141 kts 244°
2026-04-29 01:19 36.20648 -115.08740 1852 ft 3 kts 186°